COMPLETED DISPATCHED CALLS FOR SERVICE

Welcome to the Jacksonville Sheriff’s Office Completed Dispatched Calls for Service webpage. This page displays calls for service made to the Jacksonville Sheriff's Office that have recently been completed. The data on this page is refreshed automatically.

This information is not intended to be used as official crime data. This program does not provide information about all crimes, and excludes specific incidents such as sexual assaults and child abuse.

Disclaimer: The Jacksonville Sheriff's Office makes every effort to produce and publish current and accurate information. No warranties, expressed or implied, are provided for the data herein, its use, or its interpretation. The services provided are for informational purposes only and should not be relied on for any type of legal action.

Last refreshed 10/22 07:48:29

Incident # Dispatched Block Address Signal Call Description  
171022719926 10-22 07:15 3400 UNIVERSITY BLVD 13 SUSPICIOUS PERSON
171022719924 10-22 07:13 PHIL/BAYM WAY 1050 TRAFFIC STOP
171022719923 10-22 07:12 3600 HODGES BLVD 1050 TRAFFIC STOP
171022719920 10-22 07:09 ATLANTIC BLVD AND S KERNAN BLVD 1050 TRAFFIC STOP
171022719916 10-22 07:06 SUNI PINES BLVD AND BEACH BLVD 1050 TRAFFIC STOP
171022719912 10-22 06:54 GAILLARDIA RD AND PINE SUMMIT DR 33 DISCHARGING OF FIREARM
171022719905 10-22 06:51 9800 CREEKFRONT RD 76 ASSIST OTHER AGENCY
171022719858 10-22 06:49 1500 S LANE AVE 50 FOUND/ABANDONED PROPERTY
171022719902 10-22 06:47 3700 BELFORT RD 88J ASSAULT JUST OCCURRED
171022719898 10-22 06:44 CARDER ST AND NEVA ST 13 SUSPICIOUS PERSON
171022719894 10-22 06:38 8500 NOROAD 13 SUSPICIOUS PERSON
171022719896 10-22 06:38 95NB/BROW 1050 TRAFFIC STOP
171022719895 10-22 06:38 100 SB/103 96 ASSIST MOTORIST
171022719891 10-22 06:25 500 W ADAMS 13 SUSPICIOUS PERSON
171022719884 10-22 06:16 11000 OLD ST AUGUSTINE RD 63 DISPUTE
171022719889 10-22 06:16 N PEARL ST AND W 68TH ST 60 SUICIDE OR ATTEMPT
171022719882 10-22 06:01 5100 JOHNSON CREEK DR 21C BURGLARY CONVEYANCE
171022719879 10-22 05:54 5700 SILVER PLZ 63 DISPUTE
171022719880 10-22 05:54 STATE/N MARKET 13 SUSPICIOUS PERSON
171022719861 10-22 05:51 6200 ROLLING TREE ST 13 SUSPICIOUS PERSON
171022719875 10-22 05:49 1100 N MARKET ST 2 63 DISPUTE IMPAIRED/INTOXICATED
171022719874 10-22 05:46 DUNN AVE AND HARTS RD 49 REPORT TO HOSPITAL
171022719868 10-22 05:36 1000 N EDGEWOOD AVE 14B VANDALISM BUSINESS
171022719871 10-22 05:34 3700 CASCADE RD 4 AUTO CRASH
171022719870 10-22 05:33 5600 BAPTIST LN 63 DISPUTE
171022719867 10-22 05:30 1000 DE PAUL DR 63 DISPUTE
171022719869 10-22 05:30 3300 DREW ST 64 NOISE COMPLAINT
171022719866 10-22 05:18 6700 SOUTHPOINT PKWY 3 HIT AND RUN CRASH
171022719860 10-22 05:15 5700 SILVER PLZ 63 DISPUTE
171022719864 10-22 05:15 N I95 EXPWY AND GOLFAIR BLVD 1050 TRAFFIC STOP
171022719863 10-22 05:14 3100 S ST JOHNS BLUFF RD 13 SUSPICIOUS PERSON
171022719859 10-22 05:12 5700 SILVER PLZ 13 SUSPICIOUS PERSON
171022719856 10-22 05:08 SENTRY DR AND FIELDVIEW DR 63 DISPUTE
171022719857 10-22 05:08 300 WATER ST 13 SUSPICIOUS PERSON
171022719855 10-22 04:59 800 N DAVIS ST 13 SUSPICIOUS PERSON
171022719846 10-22 04:51 4200 MAGILL RD 2 63 DISPUTE IMPAIRED/INTOXICATED
171022719845 10-22 04:49 700 N EDGEWOOD AVE 88 ASSAULT
171022719830 10-22 04:41 12200 HIDDEN HILLS DR 2 63 DISPUTE IMPAIRED/INTOXICATED
171022719840 10-22 04:39 2600 S ST JOHNS BLUFF RD 9 THEFT
171022719843 10-22 04:39 100 S LIMA ST 13 SUSPICIOUS PERSON
171022719839 10-22 04:37 1300 E 26TH ST 63 DISPUTE
171022719838 10-22 04:36 4800 LENOIR AVE 37 UNVERIFIED 911 CALL
171022719836 10-22 04:34 7700 TIMBERLIN PARK BLVD 63 DISPUTE
171022719833 10-22 04:33 6200 ARLINGTON EXPWY 57 PERSON CALLING FOR HELP
171022719834 10-22 04:33 MAIN/EASTPORT 96 ASSIST MOTORIST
171022719831 10-22 04:31 8000 103RD ST 13 SUSPICIOUS PERSON
171022719827 10-22 04:26 4800 RIVERDALE RD 33 DISCHARGING OF FIREARM
171022719823 10-22 04:10 NEW KINGS RD AND RICHARDSON RD 1050 TRAFFIC STOP
171022719814 10-22 04:09 3100 THOMAS ST 63 DISPUTE
171022719820 10-22 04:07 9700 TOUCHTON RD 21CP BURGLARY CONVEYANCE IN PROGRESS
171022719817 10-22 04:05 6000 ARGYLE FOREST BLVD 1066 CANCEL
171022719810 10-22 04:04 6400 DICKENS DR 90 FIREWORKS
171022719715 10-22 04:03 COLLEGE ST AND OSCEOLA ST 64 NOISE COMPLAINT
171022719816 10-22 04:03 ORTEGA FARMS BLVD AND TIMUQUANA RD 1050 TRAFFIC STOP
171022719809 10-22 03:57 2000 STEVENS ST 2 22 DOMESTIC DISTURBANCE
171022719807 10-22 03:56 1000 CALIENTE DR 63 DISPUTE
171022719762 10-22 03:55 5100 101ST ST 8 MISSING PERSON
171022719785 10-22 03:51 8500 VINING ST 22 DOMESTIC
171022719804 10-22 03:49 12900 BROXTON BAY DR 64 NOISE COMPLAINT
171022719800 10-22 03:48 3900 COTTONWOOD LN 22 DOMESTIC
171022719808 10-22 03:47 600 W 44TH ST 63 DISPUTE
171022719777 10-22 03:44 1200 STEELE CT 1066 CANCEL
171022719806 10-22 03:44 4200 MAGILL RD 22 DOMESTIC
171022719803 10-22 03:35 600 SPAULDING RD 76 ASSIST OTHER AGENCY
171022719801 10-22 03:31 1100 N PANUCO AVE 13 SUSPICIOUS PERSON
171022719797 10-22 03:29 1500 GOLF FOREST DR 2288 DOMESTIC DISPUTE WITH/ASSAULT
171022719790 10-22 03:28 6000 ROOSEVELT BLVD 13 SUSPICIOUS PERSON
171022719795 10-22 03:28 6200 MORSE OAKS CIR 14CJ VANDALISM CONVEYANCE JUST OCCURRED
171022719798 10-22 03:27 13500 BARTRAM PARK BLVD 64 NOISE COMPLAINT
171022719793 10-22 03:24 N I95 EXPWY AND W 8TH ST 4 AUTO CRASH
171022719796 10-22 03:24 LUNA ST AND WALLER ST 1050 TRAFFIC STOP
171022719792 10-22 03:22 N I95 EXPWY AND W 8TH ST 4 53 TRAFFIC CRASH PERSON INJURED
171022719791 10-22 03:21 8700 BERRY AVE 0 63 ARMED DISPUTE
171022719784 10-22 03:20 4500 BULL RUN RD 33 DISCHARGING OF FIREARM
171022719789 10-22 03:18 17TH/DAVIS 1050 TRAFFIC STOP
171022719787 10-22 03:16 LIBERTY/8TH 1050 TRAFFIC STOP
171022719786 10-22 03:15 10000 SKINNER LAKE DR 76 ASSIST OTHER AGENCY
171022719770 10-22 03:12 MONCRIEF RD AND W 45TH ST 63 DISPUTE
171022719778 10-22 03:12 11900 BEACH BLVD 64 NOISE COMPLAINT
171022719761 10-22 03:12 3700 S ST JOHNS BLUFF RD 64 NOISE COMPLAINT
171022719783 10-22 03:11 6300 N TERRY PARKER DR 6388 DISPUTE WITH ASSAULT
171022719782 10-22 03:09 11900 BRADDOCK RD 4 53 TRAFFIC CRASH PERSON INJURED
171022719748 10-22 03:08 500 S EDGEWOOD AVE 16 ROAD OBSTRUCTION
171022719779 10-22 03:07 3000 N MAIN ST 13 SUSPICIOUS PERSON
171022719776 10-22 03:06 700 N LINCOLN CT 0 63 ARMED DISPUTE
171022719772 10-22 03:02 ARL/LIL 1050 TRAFFIC STOP
171022719764 10-22 02:59 5400 COLLINS RD 4 AUTO CRASH
171022719758 10-22 02:59 2600 BONAVENTURE AVE 13 SUSPICIOUS PERSON
171022719766 10-22 02:58 N I95 EXPWY AND J TURNER BUTLER BLVD 4 AUTO CRASH
171022719767 10-22 02:57 GOLFAIR/MYRTLE 1050 TRAFFIC STOP
171022719763 10-22 02:54 CHASE/GOLFAIR 1050 TRAFFIC STOP
171022719733 10-22 02:53 4400 HODGES BLVD 63 DISPUTE
171022719663 10-22 02:52 2900 SPENCER ST 6388 DISPUTE WITH ASSAULT
171022719756 10-22 02:52 1800 DAVIDSON FARM RD 13 SUSPICIOUS PERSON
171022719725 10-22 02:48 1900 W EDGEWOOD AVE 37 UNVERIFIED 911 CALL
171022719738 10-22 02:47 2300 W EDGEWOOD AVE 13 SUSPICIOUS PERSON
171022719740 10-22 02:39 5200 EMORY CIR 64 NOISE COMPLAINT
171022719747 10-22 02:35 BEACH BLVD AND PEACH DR 1050 TRAFFIC STOP
171022719745 10-22 02:33 N MAIN ST AND W 8TH ST 1050 TRAFFIC STOP
171022719734 10-22 02:33 PLAYA WAY AND UNIVERSITY BLVD 6388 DISPUTE WITH ASSAULT
171022719723 10-22 02:31 7700 PICKETT ST 27 MENTALLY ILL PERSON
171022719744 10-22 02:31 8400 SOUTHSIDE BLVD 21R BURGLARY RESIDENCE
171022719741 10-22 02:31 4000 JONES BRANCH BLVD 9P THEFT IN PROGRESS
171022719736 10-22 02:29 1900 CASSAT AVE 4 AUTO CRASH
171022719742 10-22 02:28 W 21ST ST AND N MAIN ST 1050 TRAFFIC STOP
171022719720 10-22 02:27 N OCEAN ST AND E MONROE ST 63 DISPUTE
171022719735 10-22 02:23 5600 SEABOARD AVE 63 DISPUTE
171022719728 10-22 02:20 KITTY ST AND MARBURY DR 33 DISCHARGING OF FIREARM
171022719731 10-22 02:19 2800 SRA1A HWY 76 ASSIST OTHER AGENCY
171022719730 10-22 02:19 900 KING ST 76 ASSIST OTHER AGENCY
171022719726 10-22 02:18 8700 A C SKINNER PKWY 79 OBSCENE / THREAT CALL OR LETTER
171022719729 10-22 02:17 4100 LOYS DR 76 ASSIST OTHER AGENCY
171022719727 10-22 02:15 9800 ATLANTIC BLVD 4 AUTO CRASH
171022719684 10-22 02:15 1200 LORENTO ST 61 FIGHT
171022719637 10-22 02:15 5700 LENOX AVE 2288 DOMESTIC DISPUTE WITH/ASSAULT
171022719724 10-22 02:13 J TURNER BUTLER BLVD AND N I95 EXPWY 4 AUTO CRASH
171022719717 10-22 02:13 100 W 7TH ST 64 NOISE COMPLAINT
171022719722 10-22 02:12 N BROAD ST AND W DUVAL ST 1050 TRAFFIC STOP
171022719721 10-22 02:12 4000 SOUTHSIDE BLVD 4 7 AUTO CRASH WITH FATALITY
171022719693 10-22 02:12 1500 WALKER LN 13 SUSPICIOUS PERSON
171022719700 10-22 02:10 6000 YOUNGERMAN CIR 2 63 DISPUTE IMPAIRED/INTOXICATED
171022719718 10-22 02:10 900 KING ST 63 DISPUTE
171022719708 10-22 02:09 4200 MAGILL RD 63 DISPUTE
171022719697 10-22 02:06 2700 N MAIN ST 63 DISPUTE
171022719714 10-22 02:05 103RD ST AND MONROE SMITH RD 96 ASSIST MOTORIST
171022719712 10-22 02:05 2000 KINGSTON ST 2288 DOMESTIC DISPUTE WITH/ASSAULT
171022719713 10-22 02:05 W UNIVERSITY BLVD AND S BARNES RD 1 IMPAIRED/DRUNK DRIVER
171022719709 10-22 02:03 1400 LOGAN ST 76 ASSIST OTHER AGENCY
171022719711 10-22 02:03 2700 HUFFMAN BLVD 13 SUSPICIOUS PERSON
171022719706 10-22 02:03 1300 INGLESIDE AVE 2 IMPAIRED/INTOXICATED
171022719705 10-22 02:02 NEW KINGS RD AND SOUTEL DR 3 HIT AND RUN CRASH
171022719707 10-22 02:02 PRUNTY AVE AND LAMBOLL AVE 1050 TRAFFIC STOP
171022719703 10-22 02:01 1ST/PEARL 1050 TRAFFIC STOP
171022719694 10-22 02:00 1500 S LANE AVE 13 SUSPICIOUS PERSON
171022719701 10-22 02:00 400 E BAY ST 11 ABANDONED VEHICLE
171022719685 10-22 02:00 100 W 32ND ST 22 DOMESTIC
171022719699 10-22 01:59 N MAIN ST AND W 48TH ST 1050 TRAFFIC STOP
171022719696 10-22 01:58 21ST/LIBERTY 1050 TRAFFIC STOP
171022719617 10-22 01:57 900 N CHAPELTOWN CIR 64 NOISE COMPLAINT
171022719690 10-22 01:57 FITZGERALD ST AND SHEARER AVE 33 DISCHARGING OF FIREARM
171022719692 10-22 01:56 4800 WINDRUSH LN 33 DISCHARGING OF FIREARM
171022719691 10-22 01:55 11100 SAN JOSE BLVD 1050 TRAFFIC STOP
171022719623 10-22 01:54 4200 COLONIAL AVE 63 DISPUTE
171022719689 10-22 01:50 FERNANDINA AVE AND GANDY ST 1050 TRAFFIC STOP
171022719683 10-22 01:49 100 S FULLER WARREN BRG 63 DISPUTE
171022719688 10-22 01:48 SAN JOSE BLVD AND N I295 EXPWY 96 ASSIST MOTORIST
171022719665 10-22 01:46 6200 POTTSBURG PLANTATION BLVD 64 NOISE COMPLAINT
171022719631 10-22 01:45 E CENTURY POINT DR AND S CENTURY POINT DR 64 NOISE COMPLAINT
171022719556 10-22 01:45 6800 W 12TH ST 22 DOMESTIC
171022719647 10-22 01:44 10000 ATLANTIC BLVD 63 DISPUTE
171022719682 10-22 01:42 LEM TURNER RD AND W EDGEWOOD AVE 1050 TRAFFIC STOP
171022719679 10-22 01:41 6300 BEACH BLVD 27 MENTALLY ILL PERSON
171022719646 10-22 01:41 1100 KENDALL TOWN BLVD 63 DISPUTE
171022719677 10-22 01:39 ROGERO RD AND MERRILL RD 4 AUTO CRASH
171022719644 10-22 01:38 7900 103RD ST 64 NOISE COMPLAINT
171022719676 10-22 01:37 5600 BARNHILL DR 0 63 ARMED DISPUTE
171022719678 10-22 01:37 35TH /MAIN 96 ASSIST MOTORIST
171022719669 10-22 01:36 FRIDEN DR AND E KEN KNIGHT DR 64 NOISE COMPLAINT
171022719660 10-22 01:35 S MANEY DR AND SHULL DR 64 NOISE COMPLAINT
171022719652 10-22 01:35 4200 BUCK POINT RD 13 SUSPICIOUS PERSON
171022719649 10-22 01:34 4600 HARPERS FERRY LN 1066 CANCEL
171022719671 10-22 01:34 100 SHIRCLIFF WAY 7 DEAD PERSON
171022719673 10-22 01:33 LEM TURNER RD AND PALMDALE ST 1050 TRAFFIC STOP
171022719670 10-22 01:31 E BAY/LAFAYETTE 1050 TRAFFIC STOP
171022719668 10-22 01:31 4800 CAMPENELLA DR 63 DISPUTE
171022719662 10-22 01:29 11700 TUMBLEWEED WAY 8 MISSING PERSON
171022719667 10-22 01:29 MAIN/27TH ST 1050 TRAFFIC STOP
171022719666 10-22 01:28 UNIVERSITY CLUB BLVD AND JIMTOM DR 1050 TRAFFIC STOP
171022719664 10-22 01:27 9500 ARL EX 56 JUVENILE COMPLAINT
171022719659 10-22 01:25 2200 UNIVERSITY BLVD 1050 TRAFFIC STOP
171022719654 10-22 01:24 9500 103RD ST 64 NOISE COMPLAINT
171022719630 10-22 01:20 4800 FLORIDA CLUB CIR 64 NOISE COMPLAINT
171022719653 10-22 01:19 3600 BLANDING 27 MENTALLY ILL PERSON
171022719613 10-22 01:19 2800 E PARR CT 54 ILLEGALLY PARKED CAR
171022719643 10-22 01:19 5500 N UNIVERSITY CLUB BLVD 13 SUSPICIOUS PERSON
171022719648 10-22 01:18 1000 S LANE AVE 76 ASSIST OTHER AGENCY
171022719560 10-22 01:16 2300 PHILIPS HWY 63 DISPUTE
171022719635 10-22 01:16 7100 E KEN KNIGHT DR 88 ASSAULT
171022719645 10-22 01:16 900 KING ST 60 SUICIDE OR ATTEMPT
171022719574 10-22 01:15 8300 DIX ELLIS TRL 64 NOISE COMPLAINT
171022719608 10-22 01:15 3000 FITZGERALD ST 63 DISPUTE
171022719626 10-22 01:14 100 W 7TH ST 64 NOISE COMPLAINT
171022719528 10-22 01:13 6700 RAMONA BLVD 64 NOISE COMPLAINT
171022719633 10-22 01:13 WHEAT RD AND RICKER RD 64 NOISE COMPLAINT
171022719640 10-22 01:12 6200 ARLINGTON EXPRESSWAY 13 SUSPICIOUS PERSON
171022719638 10-22 01:10 3600 PINE ST 63 DISPUTE
171022719611 10-22 01:10 1800 DANCY ST 61 FIGHT
171022719639 10-22 01:10 S MCDUFF AVE AND WARRINGTON ST 4 AUTO CRASH
171022719636 10-22 01:08 N REGENCY SQUARE BLVD AND COMMERCE CENTER DR 1050 TRAFFIC STOP
171022719587 10-22 01:07 8500 BLANDING BLVD 64 NOISE COMPLAINT
171022719595 10-22 01:06 3800 TYNDALE DR 64 NOISE COMPLAINT
171022719634 10-22 01:06 95/ERMERSON 1050 TRAFFIC STOP
171022719575 10-22 01:03 1400 MANOTAK AVE 21C BURGLARY CONVEYANCE
171022719584 10-22 01:03 5100 SHENANDOAH AVE 64 NOISE COMPLAINT
171022719632 10-22 01:02 2500 MAYPORT RD 4 53 TRAFFIC CRASH PERSON INJURED
171022719629 10-22 01:02 8000 HAMMOND BLVD 13 SUSPICIOUS PERSON
171022719555 10-22 00:59 9400 REGENCY SQUARE BLVD 63 DISPUTE
171022719529 10-22 00:59 2200 KINGSTON ST 21C BURGLARY CONVEYANCE
171021719508 10-22 00:57 8400 CAPRICORN ST 63 DISPUTE
171022719622 10-22 00:57 9000 2ND AVE 63 DISPUTE
171022719620 10-22 00:57 1100 OLD HICKORY RD 2 22 DOMESTIC DISTURBANCE
171022719618 10-22 00:57 INTERNATIONAL VILLAGE DR AND HARTSFIELD RD 13 SUSPICIOUS PERSON
171022719586 10-22 00:56 7800 JAGUAR DR 2 22 DOMESTIC DISTURBANCE
171022719624 10-22 00:55 700 N EDGEWOOD AVE 76 ASSIST OTHER AGENCY
171022719533 10-22 00:55 6000 YOUNGERMAN CIR 63 DISPUTE
171022719604 10-22 00:55 3400 CHARMONT DR 63 DISPUTE
171022719621 10-22 00:55 3700 HAWKS BAY CT 60 SUICIDE OR ATTEMPT
171022719579 10-22 00:54 8100 MORRISTOWN TRL 0 22 DOMESTIC DISTURBANCE W/WEAPON
171022719615 10-22 00:54 9000 2ND AVE 37 UNVERIFIED 911 CALL
171022719614 10-22 00:53 ARLG/UNIV 1050 TRAFFIC STOP
171022719551 10-22 00:53 3700 CROWN POINT RD 64 NOISE COMPLAINT
171022719610 10-22 00:52 ROGER/COLUMB 1050 TRAFFIC STOP
171022719605 10-22 00:50 8000 S CHARMONT DR 13 SUSPICIOUS PERSON
171022719606 10-22 00:50 E 11TH ST AND N LIBERTY ST 1050 TRAFFIC STOP
171022719577 10-22 00:48 1600 SPRINKLE DR 64 NOISE COMPLAINT
171022719599 10-22 00:46 11900 BEACH BLVD 23IJ ROBBERY INDIVIDUAL JUST OCCD
171022719603 10-22 00:46 BRANNON AVE AND 103RD ST 13 SUSPICIOUS PERSON
171022719598 10-22 00:46 2900 CARLEON RD 33 DISCHARGING OF FIREARM
171022719601 10-22 00:45 ARL/GIL 1050 TRAFFIC STOP
171022719592 10-22 00:45 BERRY AVE AND CENTURY ST 33 DISCHARGING OF FIREARM
171022719590 10-22 00:44 8700 COCOA AVE 33 DISCHARGING OF FIREARM
171022719561 10-22 00:44 11700 SAN JOSE BLVD 13 SUSPICIOUS PERSON
171022719597 10-22 00:43 100 ACME 1050 TRAFFIC STOP
171022719585 10-22 00:43 3700 S SAN PABLO RD 22 DOMESTIC
171022719583 10-22 00:42 N PEARL ST AND W 66TH ST 64 NOISE COMPLAINT
171022719593 10-22 00:42 6600 N PEARL ST 0 88 ARMED ASSAULT
171022719576 10-22 00:41 3300 CHARMONT DR 13 SUSPICIOUS PERSON
171022719526 10-22 00:41 4200 SUNBEAM RD 19 ANIMAL INVESTIGATION
171022719591 10-22 00:41 500 W 24TH ST 1050 TRAFFIC STOP
171022719570 10-22 00:39 10600 DODD RD 33 DISCHARGING OF FIREARM
171022719582 10-22 00:39 2900 SPRING PARK RD 22 DOMESTIC
171022719578 10-22 00:38 3700 DANFORTH DR 64 NOISE COMPLAINT
171022719550 10-22 00:35 9500 103RD ST 64 NOISE COMPLAINT
171022719563 10-22 00:35 MONUMENT RD AND DERRINGER RD 16 ROAD OBSTRUCTION
171022719557 10-22 00:34 SAN JUAN AVE AND CASSAT AVE 3 HIT AND RUN CRASH
171022719573 10-22 00:34 3600 S UNIVERSITY BLVD 13 SUSPICIOUS PERSON
171022719572 10-22 00:32 UNIVERSITY BLVD AND BURDETTE RD 1050 TRAFFIC STOP
171021719495 10-22 00:30 4900 N GREENLAND HIDEAWAY DR 13 SUSPICIOUS PERSON
171022719567 10-22 00:29 CESERY BLVD AND MERRILL RD 1050 TRAFFIC STOP
171022719565 10-22 00:29 EMERSON ST AND GRANT RD 1050 TRAFFIC STOP
171022719543 10-22 00:28 3200 S SUNNYBROOK AVE 2288 DOMESTIC DISPUTE WITH/ASSAULT
171022719564 10-22 00:27 S LANE AVE AND LENOX AVE 1050 TRAFFIC STOP
171022719562 10-22 00:27 UNIVERSITY BLVD AND MACY AVE 1050 TRAFFIC STOP
171022719545 10-22 00:26 7300 ZAPATA DR 22 DOMESTIC
171022719538 10-22 00:25 1200 W 6TH ST 76 ASSIST OTHER AGENCY
171022719559 10-22 00:25 1500 S LANE AVE 18 PERSON SHOT
171022719552 10-22 00:23 6000 POWERS AVE 61 FIGHT
171022719536 10-22 00:23 7100 WILSON BLVD 4 AUTO CRASH
171021719507 10-22 00:22 3600 WALSH ST 2288 DOMESTIC DISPUTE WITH/ASSAULT
171022719553 10-22 00:22 10800 HARTS RD 5388 ASSAULT INVOLVING INJURY
171022719554 10-22 00:21 2900 FITZGERALD ST 10R VEHICLE THEFT RECOVERY
171022719548 10-22 00:20 E KEN KNIGHT DR AND W MONCRIEF RD 64 NOISE COMPLAINT
171022719547 10-22 00:19 MERRILL RD AND JUSTINA RD 1050 TRAFFIC STOP
171022719527 10-22 00:19 WILSON BLVD AND FIRESTONE RD 3 HIT AND RUN CRASH
171021719424 10-22 00:19 3500 PHILIPS HWY 63 DISPUTE
171022719546 10-22 00:19 21/MAIN 1050 TRAFFIC STOP
171021719503 10-22 00:19 6300 FIRESTONE RD 64 NOISE COMPLAINT
171022719532 10-22 00:18 7900 103RD ST 64 NOISE COMPLAINT
171022719544 10-22 00:18 KINKAID RD AND 103RD ST 13 SUSPICIOUS PERSON
171022719542 10-22 00:17 S MCDUFF AVE AND ROOSEVELT BLVD 1050 TRAFFIC STOP
171022719541 10-22 00:17 0V 1050 TRAFFIC STOP
171022719531 10-22 00:12 300 E BAY ST 64 NOISE COMPLAINT
171022719530 10-22 00:11 1500 UNIVERSITY BLVD 13 SUSPICIOUS PERSON
171022719523 10-22 00:10 3200 E HERMITAGE RD 64 NOISE COMPLAINT
171022719525 10-22 00:08 6400 SAN JUAN AVE 2 63 DISPUTE IMPAIRED/INTOXICATED
171021719506 10-22 00:06 3100 N 3RD STREET CIR 64 NOISE COMPLAINT
171021719486 10-22 00:05 1000 S TURTLE CREEK DR 10 VEHICLE THEFT
171022719521 10-22 00:05 HARR/UNIV 1050 TRAFFIC STOP
171022719518 10-22 00:04 10600 SAN JOSE BLVD 1 IMPAIRED/DRUNK DRIVER
171022719519 10-22 00:03 7000 N MAIN 1050 TRAFFIC STOP
171022719517 10-22 00:02 3600 S LANE AVE 2288 DOMESTIC DISPUTE WITH/ASSAULT
171021719509 10-22 00:02 1500 MORGAN ST 0 63 ARMED DISPUTE
171022719516 10-22 00:01 ROOSEVELT BLVD AND PARK ST 1050 TRAFFIC STOP
171021719513 10-22 00:01 13400 BEACH BLVD 4 AUTO CRASH
171021719468 10-22 00:00 6600 RICKER RD 64 NOISE COMPLAINT
171021719510 10-21 23:59 13200 HIGHWORTH LN 64 NOISE COMPLAINT
171021719480 10-21 23:58 6200 S BARNES RD 64 NOISE COMPLAINT
171021719496 10-21 23:58 W 8TH ST AND PERRY ST 88 ASSAULT
171021719499 10-21 23:58 3200 JUSTINA TER 63 DISPUTE
171021719418 10-21 23:58 8100 S OLD KINGS RD 61 FIGHT
171021719439 10-21 23:57 9500 JOOS RD 64 NOISE COMPLAINT
171021719451 10-21 23:57 4400 BARNES RD 64 NOISE COMPLAINT
171021719505 10-21 23:56 10100 103RD ST 6388 DISPUTE WITH ASSAULT
171021719488 10-21 23:52 3100 PHILIPS HWY 0 61 FIGHT W/WEAPON
171021719477 10-21 23:51 5400 COLLINS RD 22 DOMESTIC
171021719476 10-21 23:49 WILDERLAND DR AND CELEBRANT DR 16 ROAD OBSTRUCTION
171021719432 10-21 23:48 3000 NEWELL BLVD 3 HIT AND RUN CRASH
171021719497 10-21 23:48 TROUT RIVER/MAIN 1050 TRAFFIC STOP
171021719493 10-21 23:47 PHILIPS HWY AND BAYMEADOWS RD 1050 TRAFFIC STOP
171021719489 10-21 23:47 7900 103RD ST 76 ASSIST OTHER AGENCY
171021719490 10-21 23:46 CASSAT AVE AND W I10 EXPWY 1050 TRAFFIC STOP
171021719429 10-21 23:44 8400 ATLANTIC BLVD 2 63 DISPUTE IMPAIRED/INTOXICATED
171021719401 10-21 23:44 900 DUSKIN DR 90 FIREWORKS
171021719484 10-21 23:42 E AIRPORT CENTER DR AND STARRATT RD 4 AUTO CRASH
171021719461 10-21 23:41 8000 SOUTHSIDE BLVD 21R BURGLARY RESIDENCE
171021719446 10-21 23:41 100 W 6TH ST 64 NOISE COMPLAINT
171021719481 10-21 23:40 4800 VICTORIA CHASE CT 22 DOMESTIC
171021719487 10-21 23:40 41ST/44TH 1050 TRAFFIC STOP
171021719485 10-21 23:40 103RD ST AND DANIELL TER 1050 TRAFFIC STOP
171021719483 10-21 23:39 4200 W MONCRIEF RD 63 DISPUTE
171021719456 10-21 23:38 5600 S MILMAR DR 0 22 DOMESTIC DISTURBANCE W/WEAPON
171021719482 10-21 23:38 BAYMEADOWS RD AND S OLD KINGS RD 1050 TRAFFIC STOP
171021719400 10-21 23:38 2000 W 13TH ST 63 DISPUTE
171021719440 10-21 23:35 5700 LENOX AVE 64 NOISE COMPLAINT
171021719472 10-21 23:35 100 W UNION ST 63 DISPUTE
171021719469 10-21 23:34 S MCDUFF AVE AND WARRINGTON ST 3 HIT AND RUN CRASH
171021719474 10-21 23:33 BAYMEADOWS RD AND S I295 EXPWY 1050 TRAFFIC STOP
171021719473 10-21 23:32 800 LASALLE ST 54 ILLEGALLY PARKED CAR
171021719442 10-21 23:32 BEE BEE DR AND CATHY RD 63 DISPUTE
171021719471 10-21 23:32 4000 SAN JUAN AVE 63 DISPUTE
171021719470 10-21 23:31 7900 MERRILL RD 63 DISPUTE
171021719467 10-21 23:29 BAYMEADOWS RD AND S I95 EXPWY 1050 TRAFFIC STOP
171021719466 10-21 23:29 GOLFAIR/BOULEVARD 1050 TRAFFIC STOP
171021719462 10-21 23:28 NORMANDY BLVD AND BLAIR RD 13 SUSPICIOUS PERSON
171021719444 10-21 23:28 6900 103RD ST 63 DISPUTE
171021719459 10-21 23:28 9700 DEER LAKE CT 2 63 DISPUTE IMPAIRED/INTOXICATED
171021719463 10-21 23:27 FITCH ST AND CHALLEN AVE 64 NOISE COMPLAINT
171021719464 10-21 23:27 ATLANTIC BLVD AND SOUTHSIDE BLVD 12 RECKLESS DRIVER
171021719458 10-21 23:25 103RD ST AND KEN RD 1050 TRAFFIC STOP
171021719455 10-21 23:24 13800 OLD ST AUGUSTINE RD 3 HIT AND RUN CRASH
171021719441 10-21 23:22 S BROOKVIEW DR AND DEBUTANTE DR 16 ROAD OBSTRUCTION
171021719453 10-21 23:22 21ST/N MAIN 1050 TRAFFIC STOP
171021719433 10-21 23:22 7800 E MOSS POINTE TRL 63 DISPUTE
171021719431 10-21 23:21 W MOSS POINTE TRL AND S MOSS POINTE TRL 64 NOISE COMPLAINT
171021719430 10-21 23:20 W WEXFORD HOLLOW RD AND N HUNT CLUB RD 64 NOISE COMPLAINT
171021719450 10-21 23:20 LENOX AVE AND S MCDUFF AVE 1050 TRAFFIC STOP
171021719447 10-21 23:20 8000 ATLANTIC BLVD 5388 ASSAULT INVOLVING INJURY
171021719438 10-21 23:19 4200 W MONCRIEF RD 63 DISPUTE
171021719445 10-21 23:19 KINGSTON ST AND CANAL ST 19 ANIMAL INVESTIGATION
171021719367 10-21 23:18 4500 S SAN PABLO RD 7 DEAD PERSON
171021719443 10-21 23:18 17TH/N MAIN 13 SUSPICIOUS PERSON
171021719437 10-21 23:16 8400 BEACH BLVD 1050 TRAFFIC STOP
171021719435 10-21 23:14 3800 TYNDALE DR 64 NOISE COMPLAINT
171021719396 10-21 23:14 2100 SOUTHSIDE BLVD 27 MENTALLY ILL PERSON
171021719318 10-21 23:12 5200 COLLINS RD 63 DISPUTE
171021719420 10-21 23:11 4500 W JADE DR 64 NOISE COMPLAINT
171021719408 10-21 23:11 1700 DANCY ST 50 FOUND/ABANDONED PROPERTY
171021719425 10-21 23:10 1800 CASSAT AVE 14 VANDALISM
171021719423 10-21 23:10 8300 BAYMEADOWS RD 63 DISPUTE
171021719351 10-21 23:10 1700 S SAN PABLO RD 64 NOISE COMPLAINT
171021719414 10-21 23:09 1500 HENDRICKS AVE 27 MENTALLY ILL PERSON
171021719390 10-21 23:09 13500 CHAUNY RD 64 NOISE COMPLAINT
171021719366 10-21 23:09 5700 E BILLMORE CIR 22 DOMESTIC
171021719422 10-21 23:09 100 S DAMES POINT BRG 16 ROAD OBSTRUCTION
171021719410 10-21 23:09 8000 KESWICK CT 64 NOISE COMPLAINT
171021719413 10-21 23:06 5600 HOLLY BELL DR 27 MENTALLY ILL PERSON
171021719416 10-21 23:04 3800 VIA DE LA REINA 8 27 MISSING MENTALLY ILL
171021719406 10-21 23:04 103RD ST AND HARLOW BLVD 23I ROBBERY INDIVIDUAL
171021719412 10-21 23:03 8700 NEWTON RD 56 JUVENILE COMPLAINT
171021719404 10-21 23:03 1700 ESTANCIA AVE 5361 FIGHT INVOLVING INJURY
171021719407 10-21 23:02 1900 N US 301 HWY 7 DEAD PERSON
171021719409 10-21 23:01 BUNKER HILL/EDGEWOOD 13 SUSPICIOUS PERSON
171021719335 10-21 23:01 1500 W 15TH ST 27 MENTALLY ILL PERSON
171021719361 10-21 23:00 BAYMEADOWS RD AND POINT MEADOWS DR 4 AUTO CRASH
171021719405 10-21 23:00 8800 PHILIPS HWY 2288 DOMESTIC DISPUTE WITH/ASSAULT
171021719383 10-21 23:00 8500 BEACH BLVD 63 DISPUTE
171021719402 10-21 22:59 DINSMORE CEMETERY RD AND OLD KINGS RD 60 SUICIDE OR ATTEMPT
171021719403 10-21 22:59 PARK ST AND MARGARET ST 76 ASSIST OTHER AGENCY
171021719399 10-21 22:56 FIRESTONE RD AND MORSE AVE 1050 TRAFFIC STOP
171021719395 10-21 22:54 ROGERO RD AND PINE SUMMIT DR 1050 TRAFFIC STOP
171021719394 10-21 22:53 1300 AIRPORT RD 4 53 TRAFFIC CRASH PERSON INJURED
171021719369 10-21 22:53 600 STOCKTON ST 63 DISPUTE
171021719389 10-21 22:52 7500 ARLINGTON EXPWY 21R BURGLARY RESIDENCE
171021719392 10-21 22:51 11TH/JAMES HALL DR 1050 TRAFFIC STOP
171021719342 10-21 22:51 MADDIE LN AND TRISTAN DR 64 NOISE COMPLAINT
171021719387 10-21 22:51 10100 HUNTINGTON FOREST 13 SUSPICIOUS PERSON
171021719372 10-21 22:49 3100 LANTANA LAKES DR 13 SUSPICIOUS PERSON
171021719334 10-21 22:49 1700 POWHATTAN ST 22 DOMESTIC
171021719376 10-21 22:49 DANDY AVE AND N BOWLAN ST 64 NOISE COMPLAINT
171021719384 10-21 22:47 8300 MERRILL RD 96 ASSIST MOTORIST
171021719371 10-21 22:46 MARISCO WAY AND MORRILLO CT 13 SUSPICIOUS PERSON
171021719379 10-21 22:46 WATER ST AND PARK ST 13 SUSPICIOUS PERSON
171021719380 10-21 22:45 25TH/BOULEVARD 1050 TRAFFIC STOP
171021719375 10-21 22:43 3000 N MAIN 13 SUSPICIOUS PERSON
171021719373 10-21 22:43 BLANDING BLVD AND S I295 EXPWY 4 53 TRAFFIC CRASH PERSON INJURED
171021719365 10-21 22:42 4000 E BRIARFOREST RD 64 NOISE COMPLAINT
171021719370 10-21 22:41 103RD ST AND S I295 EXPWY 4 53 TRAFFIC CRASH PERSON INJURED
171021719368 10-21 22:41 600 STOCKTON ST 13 SUSPICIOUS PERSON
171021719355 10-21 22:40 OLD ST AUGUSTINE RD AND BARTRAM PARK BLVD 3 HIT AND RUN CRASH
171021719362 10-21 22:40 400 CRANES LANDING CT 33 DISCHARGING OF FIREARM
171021719357 10-21 22:40 TALLEYRAND AVE AND E DUVAL ST 4 AUTO CRASH
171021719364 10-21 22:39 DUNN AVE AND MAR VIC LN 1050 TRAFFIC STOP
171021719363 10-21 22:39 I95 NB/EDGEWOOD 1050 TRAFFIC STOP
171021719360 10-21 22:38 1200 W CARLOTTA RD 2 22 DOMESTIC DISTURBANCE
171021719358 10-21 22:38 4700 BIRKENHEAD RD 73 DRUG INVESTIGATION
171021719312 10-21 22:38 4400 BARNES RD 64 NOISE COMPLAINT
171021719353 10-21 22:37 2000 HYDE PARK RD 33 DISCHARGING OF FIREARM
171021719340 10-21 22:36 7600 103RD ST 63 DISPUTE
171021719356 10-21 22:36 N 3RD ST AND N 4TH AVE 1 IMPAIRED/DRUNK DRIVER
171021719350 10-21 22:34 BLANDING/LINWOOD 1050 TRAFFIC STOP
171021719319 10-21 22:34 2000 HODGES BLVD 5388 ASSAULT INVOLVING INJURY
171021719348 10-21 22:34 700 N MAIN ST 73 DRUG INVESTIGATION
171021719347 10-21 22:33 I295/PULASKI 96 ASSIST MOTORIST
171021719346 10-21 22:32 LENOX/CASS 1050 TRAFFIC STOP
171021719315 10-21 22:31 S I95 EXPWY AND LEM TURNER RD 96 ASSIST MOTORIST
171021719345 10-21 22:30 S I295 EXPWY AND NORMANDY BLVD 1050 TRAFFIC STOP
171021719339 10-21 22:29 PARKER ST AND E DUVAL ST 4 AUTO CRASH
171021719337 10-21 22:29 MERRILL RD AND FT CAROLINE RD 13 SUSPICIOUS PERSON
171021719343 10-21 22:29 WESTGATE DR AND GORDEAN RD 13 SUSPICIOUS PERSON
171021719336 10-21 22:27 11200 BEACH BLVD 3 HIT AND RUN CRASH
171021719341 10-21 22:26 W 8TH ST AND S I95 EXPWY 4 AUTO CRASH
171021719329 10-21 22:25 1500 S LANE AVE 63 DISPUTE
171021719333 10-21 22:25 W 8TH ST AND N DAVIS ST 4 AUTO CRASH
171021719332 10-21 22:24 11200 BEACH BLVD 2 IMPAIRED/INTOXICATED
171021719331 10-21 22:24 WEST PALM AVE AND NORMAN E THAGARD BLVD 1050 TRAFFIC STOP
171021719330 10-21 22:23 N I95 EXPWY AND BOWDEN RD 1050 TRAFFIC STOP
171021719325 10-21 22:23 CATTAIL POND DR AND S BIGGIN CHURCH RD 64 NOISE COMPLAINT
171021719327 10-21 22:23 110TH ST AND DAVON ST 1050 TRAFFIC STOP
171021719303 10-21 22:22 700 LEAFY LN 64 NOISE COMPLAINT
171021719324 10-21 22:20 MER/TOWN 1050 TRAFFIC STOP
171021719321 10-21 22:20 11900 DIAMOND SPRINGS DR 56 JUVENILE COMPLAINT
171021719278 10-21 22:19 1200 MAYPORT LANDING CIR 27 MENTALLY ILL PERSON
171021719286 10-21 22:19 SOARING FLIGHT DR AND SOARING FLIGHT WAY 64 NOISE COMPLAINT
171021719232 10-21 22:19 2100 SOUTHSIDE BLVD 63 DISPUTE
171021719313 10-21 22:18 6600 RICKER RD 64 NOISE COMPLAINT
171021719320 10-21 22:18 PROSPECT ST AND COMMONWEALTH AVE 1050 TRAFFIC STOP
171021719288 10-21 22:17 S OLD MIDDLEBURG RD AND ARGYLE FOREST BLVD 91 TRAFFIC LIGHT/RR CROSSING MALFUNCTION
171021719310 10-21 22:16 1000 MARBLEHEAD RD 64 NOISE COMPLAINT
171021719317 10-21 22:15 10000 ATLANTIC BLVD 63 DISPUTE
171021719287 10-21 22:15 1900 CONSTANT DR 63 DISPUTE
171021719316 10-21 22:15 OCEANWAY AVE AND NEW BERLIN RD 64 NOISE COMPLAINT
171021719239 10-21 22:14 UNIVERSITY BLVD AND ATLANTIC BLVD 33 DISCHARGING OF FIREARM
171021719276 10-21 22:14 1700 GRAND ST 21C BURGLARY CONVEYANCE
171021719311 10-21 22:13 7000 S SALISBURY RD 4 AUTO CRASH
171021719309 10-21 22:12 2100 W 45TH ST 76 ASSIST OTHER AGENCY
171021719305 10-21 22:12 3800 SUDBURY AVE 64 NOISE COMPLAINT
171021719307 10-21 22:11 HODGES BLVD AND BEACH BLVD 1050 TRAFFIC STOP
171021719296 10-21 22:09 5300 CLARENDON RD 64 NOISE COMPLAINT
171021719188 10-21 22:09 2300 ANNISTON RD 13 SUSPICIOUS PERSON
171021719302 10-21 22:09 PHIL/ST AUG 1050 TRAFFIC STOP
171021719283 10-21 22:09 8100 ATLANTIC BLVD 4 AUTO CRASH
171021719295 10-21 22:09 1600 SOUTHSIDE BLVD 13 SUSPICIOUS PERSON
171021719290 10-21 22:07 3300 COMMONWEALTH AVE 63 DISPUTE
171021719299 10-21 22:06 SAN JUAN AVE AND CASSAT AVE 1050 TRAFFIC STOP
171021719298 10-21 22:05 LENOX AVE AND S EDGEWOOD AVE 1050 TRAFFIC STOP
171021719294 10-21 22:05 BEACH BLVD AND CORTEZ RD 4 AUTO CRASH
171021719291 10-21 22:05 900 W FORSYTH ST 2 63 DISPUTE IMPAIRED/INTOXICATED
171021719223 10-21 22:04 3100 W EDGEWOOD AVE 22 DOMESTIC
171021719292 10-21 22:02 S MCDUFF AVE AND PHYLLIS ST 1 IMPAIRED/DRUNK DRIVER
171021719271 10-21 22:02 4700 SOUTEL DR 22 DOMESTIC
171021719213 10-21 22:01 9600 GISBORNE DR 22 DOMESTIC
171021719285 10-21 22:00 ARLINGTON EXPWY AND CESERY BLVD 1050 TRAFFIC STOP
171021719284 10-21 21:59 BEACH BLVD AND CORTEZ RD 4 AUTO CRASH
171021719282 10-21 21:59 2100 W 1ST ST 23IJ ROBBERY INDIVIDUAL JUST OCCD
171021719281 10-21 21:58 10500 DOVE LN 63 DISPUTE
171021719272 10-21 21:56 1200 DENAUD ST 2 63 DISPUTE IMPAIRED/INTOXICATED
171021719267 10-21 21:56 2300 GAILLARDIA RD 63 DISPUTE
171021719241 10-21 21:55 8400 W GATE PKWY 64 NOISE COMPLAINT
171021719277 10-21 21:55 W 45TH ST AND AVENUE B 1050 TRAFFIC STOP
171021719264 10-21 21:55 I10 EXPWY 12 RECKLESS DRIVER
171021719275 10-21 21:54 BAKER AVE AND BROADWAY AVE 1050 TRAFFIC STOP
171021719248 10-21 21:54 WOODETTE WAY AND PEELER RD 64 NOISE COMPLAINT
171021719269 10-21 21:54 11000 W BACALL RD 2288 DOMESTIC DISPUTE WITH/ASSAULT
171021719242 10-21 21:53 S MCDUFF AVE AND PLUM ST 64 NOISE COMPLAINT
171021719270 10-21 21:52 21ST/MAIN 1050 TRAFFIC STOP
171021719268 10-21 21:51 PHIL/EMERSON 1050 TRAFFIC STOP
171021719156 10-21 21:51 7200 ARLINGTON EXPWY 22 DOMESTIC
171021719233 10-21 21:50 1200 CASSAT AVE 2 63 DISPUTE IMPAIRED/INTOXICATED
171021719265 10-21 21:50 8100 SOUTHSIDE BLVD 1050 TRAFFIC STOP
171021719256 10-21 21:50 9500 REGENCY SQUARE BLVD 9J THEFT JUST OCCURRED
171021719262 10-21 21:49 6900 WILEY RD 20 PROWLER
171021719259 10-21 21:45 1100 HUBBARD ST 0 23IJ ARMED ROBBERY INDIVIDUAL JUST OCCURRED
171021719249 10-21 21:45 5900 PAINTED PONY DR 13 SUSPICIOUS PERSON
171021719260 10-21 21:44 EDGE/NEW 1050 TRAFFIC STOP
171021719258 10-21 21:43 103RD/ROCK 1050 TRAFFIC STOP
171021719257 10-21 21:42 2300 TURNER LAKES CT 63 DISPUTE
171021719254 10-21 21:40 3000 PHILIPS HWY 1050 TRAFFIC STOP
171021719247 10-21 21:40 7100 WILEY RD 33 DISCHARGING OF FIREARM
171021719250 10-21 21:39 LENOX AVE AND LUNA ST 1050 TRAFFIC STOP
171021719245 10-21 21:36 13900 BEACH BLVD 3 HIT AND RUN CRASH
171021719237 10-21 21:35 5600 CALIFORNIA AVE 13 SUSPICIOUS PERSON
171021719244 10-21 21:35 5300 TIMUQUANA RD 13 SUSPICIOUS PERSON
171021719228 10-21 21:35 8800 BAYMEADOWS RD 70J COUNTERFEIT JUST OCCURRED
171021719236 10-21 21:34 6500 RAMONA BLVD 22 DOMESTIC
171021719240 10-21 21:33 S I295 EXPWY AND DUNN AVE 16 ROAD OBSTRUCTION
171021719219 10-21 21:33 3400 PRATHER DR 63 DISPUTE
171021719218 10-21 21:33 1000 N LIBERTY ST 63 DISPUTE
171021719231 10-21 21:31 3600 RIVERSIDE AVE 13 SUSPICIOUS PERSON
171021719234 10-21 21:31 S MCDUFF AVE AND PHYLLIS ST 4 53 TRAFFIC CRASH PERSON INJURED
171021719182 10-21 21:31 8400 ROYALWOOD DR 10 VEHICLE THEFT
171021719226 10-21 21:29 200 RIVERSIDE AVE 63 DISPUTE
171021719227 10-21 21:29 5000 CLEVELAND RD 10R VEHICLE THEFT RECOVERY
171021719222 10-21 21:28 8300 CALENTO ST 76 ASSIST OTHER AGENCY
171021719221 10-21 21:27 5700 LENOX AVE 64 NOISE COMPLAINT
171021719216 10-21 21:26 1700 W 21ST ST 5388 ASSAULT INVOLVING INJURY
171021719163 10-21 21:25 7000 103RD ST 21B BURGLARY BUSINESS
171021719214 10-21 21:25 3800 SUDBURY AVE 64 NOISE COMPLAINT
171021719217 10-21 21:24 W BEAVER ST AND ONTARIO ST 1050 TRAFFIC STOP
171021719215 10-21 21:24 BOWIE RD AND NEW KINGS RD 4 AUTO CRASH
171021719205 10-21 21:24 7800 W BAYMEADOWS CIR 33 DISCHARGING OF FIREARM
171021719111 10-21 21:24 3800 S SAN PABLO RD 95IDT IDENTITY THEFT TELESERVE
171021719208 10-21 21:23 SUDBURY AVE AND TYNDALE DR 64 NOISE COMPLAINT
171021719098 10-21 21:23 8200 PHILIPS HWY 60 SUICIDE OR ATTEMPT
171021719210 10-21 21:22 NEW KINGS RD AND BOWIE RD 16 ROAD OBSTRUCTION
171021719212 10-21 21:22 S MCDUFF AVE AND ROSSELLE ST 1050 TRAFFIC STOP
171021719209 10-21 21:21 POST/SIER 1050 TRAFFIC STOP
171021719195 10-21 21:19 1500 MONUMENT RD 4 AUTO CRASH
171021719207 10-21 21:19 800 FRANKLIN ST 76 ASSIST OTHER AGENCY
171021719149 10-21 21:19 200 W 61ST ST 22 DOMESTIC
171021719204 10-21 21:19 11300 MANDARIN RIDGE LN 64 NOISE COMPLAINT
171021719186 10-21 21:17 13400 SELLERS LN 64 NOISE COMPLAINT
171021719200 10-21 21:16 WOODCREST/CASSAT 1050 TRAFFIC STOP
171021719197 10-21 21:15 BEACH BLVD AND S KERNAN BLVD 1050 TRAFFIC STOP
171021719196 10-21 21:15 5700 LENOX AVE 21C BURGLARY CONVEYANCE
171021719185 10-21 21:15 5000 CLEVELAND RD 63 DISPUTE
171021719162 10-21 21:14 S I95 EXPWY AND OLD ST AUGUSTINE RD 4 AUTO CRASH
171021719194 10-21 21:14 BEACH BLVD AND SOUTHSIDE BLVD 1050 TRAFFIC STOP
171021719192 10-21 21:13 BEACH AVE AND 3RD ST 1050 TRAFFIC STOP
171021719142 10-21 21:13 S I295 EXPWY AND COLLINS RD 16 ROAD OBSTRUCTION
171021719177 10-21 21:13 8900 NORMANDY BLVD 13 SUSPICIOUS PERSON
171021719189 10-21 21:12 727 1066 CANCEL
171021719164 10-21 21:11 5700 LENOX AVE 21C BURGLARY CONVEYANCE
171021719118 10-21 21:11 3600 HERSCHEL ST 27 MENTALLY ILL PERSON
171021719187 10-21 21:10 S MCDUFF AVE AND WALLER ST 1050 TRAFFIC STOP
171021719179 10-21 21:10 W EDGEWOOD AVE AND AVENUE B 4 53 TRAFFIC CRASH PERSON INJURED
171021719183 10-21 21:09 GILMORE ST AND LUNA ST 1050 TRAFFIC STOP
171021719176 10-21 21:09 NEW BERLIN RD AND PORT JACKSONVILLE PKWY 16 ROAD OBSTRUCTION
171021719178 10-21 21:08 CASS/ASTRAL 1050 TRAFFIC STOP
171021719136 10-21 21:08 1900 MCQUADE ST 63 DISPUTE
171021719174 10-21 21:07 W 18TH ST AND JUPITER AVE 1050 TRAFFIC STOP
171021719155 10-21 21:07 7000 S OLD KINGS RD 64 NOISE COMPLAINT
171021719138 10-21 21:07 7200 S OLD KINGS RD 64 NOISE COMPLAINT
171021719169 10-21 21:07 700 S MCCARGO ST 63 DISPUTE
171021719166 10-21 21:06 2700 JOHN PROM BLVD 76 ASSIST OTHER AGENCY
171021719172 10-21 21:06 7600 103RD ST 1050 TRAFFIC STOP
171021719160 10-21 21:04 E BRIARFOREST RD AND N UNIVERSITY CLUB BLVD 64 NOISE COMPLAINT
171021719037 10-21 21:04 6900 N SONORA DR 63 DISPUTE
171021719165 10-21 21:04 4100 PHILIPS HWY 63 DISPUTE
171021719157 10-21 21:04 HARE AVE AND N ARLINGTON RD 13 SUSPICIOUS PERSON
171021719159 10-21 21:03 9300 BAYMEADOWS RD 37 UNVERIFIED 911 CALL
171021719161 10-21 21:03 6800 WILSON BLVD 63 DISPUTE
171021719158 10-21 21:00 ROOSEVELT BLVD AND SAN JUAN AVE 1050 TRAFFIC STOP
171021719153 10-21 20:59 1400 WINDLE ST 1066 CANCEL
171021719139 10-21 20:58 1100 CREEKS RIDGE RD 1066 CANCEL
171021719088 10-21 20:58 1200 BROOKWOOD FOREST BLVD 22 DOMESTIC
171021719152 10-21 20:57 LEONID/BISCAYNE 1050 TRAFFIC STOP
171021719151 10-21 20:57 26TH/PEARL 22 DOMESTIC
171021719126 10-21 20:57 5700 LENOX AVE 56 JUVENILE COMPLAINT
171021719150 10-21 20:56 PHILIPS EXIT SR9BS RP AND S SR9B EXPWY 96 ASSIST MOTORIST
171021719143 10-21 20:56 BRIDIER ST AND CLAUDIA SPENCER ST 64 NOISE COMPLAINT
171021719148 10-21 20:56 EMERSON ST AND W COPPER CIR 1050 TRAFFIC STOP
171021719147 10-21 20:56 33RD/PEARL 1050 TRAFFIC STOP
171021719134 10-21 20:55 5400 TIERRA VERDE LN 33 DISCHARGING OF FIREARM
171021719137 10-21 20:55 4400 THICKET RIDGE LN 63 DISPUTE
171021719101 10-21 20:55 14600 DUVAL RD 87 DAMAGED PROPERTY
171021719146 10-21 20:54 WILSON BLVD AND FIRESTONE RD 1050 TRAFFIC STOP
171021719141 10-21 20:54 NORMANDY BLVD AND NORMANDY VILLAGE PKWY 1050 TRAFFIC STOP
171021719140 10-21 20:54 1900 SAN MARCO BLVD 13 SUSPICIOUS PERSON
171021719099 10-21 20:53 8300 HOGAN RD 8 MISSING PERSON
171021719132 10-21 20:52 4800 SOUTEL DR 63 DISPUTE
171021719135 10-21 20:52 WOODRUFF AVE AND PLYMOUTH ST 1050 TRAFFIC STOP
171021719130 10-21 20:51 8600 VERMANTH RD 22 DOMESTIC
171021719131 10-21 20:50 9000 HIPPS RD 1050 TRAFFIC STOP
171021719129 10-21 20:50 NORMANDY/COUNTRY CREEK 1050 TRAFFIC STOP
171021719124 10-21 20:48 10000 BELLE RIVE BLVD 13 SUSPICIOUS PERSON
171021719121 10-21 20:48 400 MALCROSS AVE 0 61 FIGHT W/WEAPON
171021719125 10-21 20:48 LENOX AVE AND LUNA ST 1050 TRAFFIC STOP
171021719122 10-21 20:47 W 26TH ST AND N PEARL ST 1 IMPAIRED/DRUNK DRIVER
171021719120 10-21 20:47 S I95 EXPWY AND E I10 EXPWY 1050 TRAFFIC STOP
171021719107 10-21 20:46 100 N LAURA ST 63 DISPUTE
171021719100 10-21 20:46 6100 YOUNGERMAN CIR 60 SUICIDE OR ATTEMPT
171021719113 10-21 20:45 4800 ROYAL AVE 33 DISCHARGING OF FIREARM
171021719097 10-21 20:45 SILVER ST AND W 3RD ST 13 SUSPICIOUS PERSON
171021719114 10-21 20:45 6200 ARLINGTON EXPWY 14 VANDALISM
171021719117 10-21 20:45 18TH/FLANDERS 1050 TRAFFIC STOP
171021719116 10-21 20:45 100 N FULLER WARREN BRG 13 SUSPICIOUS PERSON
171021719096 10-21 20:44 2800 SOPHIA ST 64 NOISE COMPLAINT
171021719104 10-21 20:43 14900 WALDEN SPRINGS WAY 64 NOISE COMPLAINT
171021719106 10-21 20:43 BRENTWOOD AVE AND GOLFAIR BLVD 12 RECKLESS DRIVER
171021719110 10-21 20:43 4500 ROOSEVELT BLVD 1050 TRAFFIC STOP
171021719068 10-21 20:43 1200 W 6TH ST 63 DISPUTE
171021719087 10-21 20:42 3100 KERNAN LAKE CIR 63 DISPUTE
171021719079 10-21 20:41 2900 BEACHWOOD BLVD 63 DISPUTE
171021719105 10-21 20:41 RICKER/JANA 13 SUSPICIOUS PERSON
171021719071 10-21 20:40 8500 W CROSS TIMBERS DR 9T THEFT (TELESERVE)
171021719075 10-21 20:40 9700 EISENHOWER RD 64 NOISE COMPLAINT
171021719050 10-21 20:40 S I295 EXPWY AND BEACH BLVD 63 DISPUTE
171021719063 10-21 20:40 14000 N LA LAUNA CIR 0 63 ARMED DISPUTE
171021719103 10-21 20:39 WILSON BLVD AND S I295 EXPWY 1050 TRAFFIC STOP
171021719085 10-21 20:39 3300 S LAUREL GROVE 2288 DOMESTIC DISPUTE WITH/ASSAULT
171021719052 10-21 20:37 CENTURY 21 DR AND VIRGO ST 33 DISCHARGING OF FIREARM
171021719091 10-21 20:37 COOKE ST AND RUTLEDGE AVE 54 ILLEGALLY PARKED CAR
171021719095 10-21 20:37 W UNIVERSITY BLVD AND ST AUGUSTINE RD 1050 TRAFFIC STOP
171021719094 10-21 20:36 MILLCREE/LONDERS 1050 TRAFFIC STOP
171021719093 10-21 20:36 CASSAT AVE AND LENOX AVE 33 DISCHARGING OF FIREARM
171021719086 10-21 20:36 2900 HOLLY POINT DR 3 HIT AND RUN CRASH
171021719090 10-21 20:35 PHIL/BUSINESS PARK 1050 TRAFFIC STOP
171021719084 10-21 20:33 S LANE AVE AND RAMONA BLVD 13 SUSPICIOUS PERSON
171021719077 10-21 20:31 100 N TROUT RIVER BRG 16 ROAD OBSTRUCTION
171021719078 10-21 20:30 W UNIVERSITY BLVD AND COLGATE RD 1050 TRAFFIC STOP
171021719074 10-21 20:30 1800 RISING OAKS DR 7 DEAD PERSON
171021719015 10-21 20:29 8900 BELLROSE AVE 2288 DOMESTIC DISPUTE WITH/ASSAULT
171021719072 10-21 20:29 11500 MACLAY CT 1066 CANCEL
171021719049 10-21 20:28 HECKSCHER DR AND ZOO PKWY 96 ASSIST MOTORIST
171021719073 10-21 20:28 3900 ALDINGTON DR 1050 TRAFFIC STOP
171021719057 10-21 20:26 2900 BEACHWOOD BLVD 0 63 ARMED DISPUTE
171021719070 10-21 20:26 9000 HIPPS RD 1050 TRAFFIC STOP
171021719067 10-21 20:25 1400 NORTHWOOD RD 13 SUSPICIOUS PERSON
171021719066 10-21 20:24 LONE STAR RD AND MILL CREEK RD 1050 TRAFFIC STOP
171021719065 10-21 20:24 PLYMOUTH/ROOSEVELT 16 ROAD OBSTRUCTION
171021719064 10-21 20:24 BROADWAY AVE AND MELSON AVE 1050 TRAFFIC STOP
171021719062 10-21 20:23 13000 S SIR ROGERS CT 76 ASSIST OTHER AGENCY
171021719059 10-21 20:23 TYNDALE DR AND SUDBURY AVE 64 NOISE COMPLAINT
171021719036 10-21 20:22 W 45TH ST AND DAKOTA DR 64 NOISE COMPLAINT
171021719061 10-21 20:22 1500 S LANE AVE 1050 TRAFFIC STOP
171021719053 10-21 20:21 3300 LORETTO RD 22 DOMESTIC
171021719055 10-21 20:21 CASSAT AVE AND LENOX AVE 3 HIT AND RUN CRASH
171021719054 10-21 20:21 8TH/LAURA 13 SUSPICIOUS PERSON
171021719019 10-21 20:20 8000 MERRILL RD 79 OBSCENE / THREAT CALL OR LETTER
171021719021 10-21 20:20 5900 FT CAROLINE RD 63 DISPUTE
171021719047 10-21 20:16 400 W 66TH ST 2288 DOMESTIC DISPUTE WITH/ASSAULT
171021719045 10-21 20:15 800 A PHILIP RANDOLPH BLVD 2 63 DISPUTE IMPAIRED/INTOXICATED
171021719034 10-21 20:15 8100 N JUSTIN RD 63 DISPUTE
171021719044 10-21 20:14 7400 WENDELL DR 19 ANIMAL INVESTIGATION
171021719039 10-21 20:13 4300 LOSCO RD 1066 CANCEL
171021719046 10-21 20:12 MEMORIAL/LANE 1050 TRAFFIC STOP
171021719002 10-21 20:12 LIVE OAK DR AND FOREST BLVD 64 NOISE COMPLAINT
171021719042 10-21 20:11 1000 BROWARD RD 37 UNVERIFIED 911 CALL
171021719030 10-21 20:10 13400 ATLANTIC BLVD 63 DISPUTE
171021719011 10-21 20:09 7000 MACBETH RD 63 DISPUTE
171021719040 10-21 20:08 12700 PULASKI RD 1066 CANCEL
171021719035 10-21 20:07 COMMONWEALTH AVE AND LEEDA DR 1050 TRAFFIC STOP
171021719033 10-21 20:06 PHIL/WISH 1050 TRAFFIC STOP
171021719031 10-21 20:05 1500 S LANE AVE 22 DOMESTIC
171021719022 10-21 20:05 8100 VILLAGE GATE CT 64 NOISE COMPLAINT
171021718969 10-21 20:05 6100 SUWANEE RD 63 DISPUTE
171021718998 10-21 20:05 13300 BEACH BLVD 1066 CANCEL
171021719029 10-21 20:05 10500 LEM TURNER RD 22 DOMESTIC
171021719028 10-21 20:05 400 MALCROSS AVE 0 61 FIGHT W/WEAPON
171021719024 10-21 20:03 DEVOE ST AND W BEAVER ST 13 SUSPICIOUS PERSON
171021719017 10-21 20:02 6000 CAPRICE DR 1066 CANCEL
171021719016 10-21 20:01 ACME ST AND ATLANTIC BLVD 5388 ASSAULT INVOLVING INJURY
171021719018 10-21 20:01 FOURAKER RD AND LENOX AVE 1050 TRAFFIC STOP
171021719014 10-21 20:00 PARK ST AND LAKE SHORE BLVD 1050 TRAFFIC STOP
171021719012 10-21 19:58 7700 HARE AVE 13 SUSPICIOUS PERSON
171021719013 10-21 19:58 WISHART ST AND SAN DIEGO RD 1050 TRAFFIC STOP
171021719009 10-21 19:57 WILSON BLVD AND W DEBRA DR 1050 TRAFFIC STOP
171021718987 10-21 19:56 100 N FULLER WARREN BRG 4 AUTO CRASH
171021718948 10-21 19:56 7700 BLANDING BLVD 4 AUTO CRASH
171021719005 10-21 19:55 J TURNER BUTLER BLVD AND S I295 EXPWY 1050 TRAFFIC STOP
171021719003 10-21 19:55 2600 TROLLIE LN 14RJ VANDALISM RESIDENCE JUST OCCURRED
171021718977 10-21 19:54 8700 BAYMEADOWS RD 9J THEFT JUST OCCURRED
171021719001 10-21 19:53 TEMPLE RD AND W UNIVERSITY BLVD 1050 TRAFFIC STOP
171021718995 10-21 19:53 4800 GATE PKWY 2 IMPAIRED/INTOXICATED
171021718996 10-21 19:52 7700 ATL 1050 TRAFFIC STOP
171021718973 10-21 19:51 12100 MANDARIN RD 90 FIREWORKS
171021718993 10-21 19:50 3200 JUSTINA RD 63 DISPUTE
171021718991 10-21 19:50 RIVERSIDE AVE AND RIVERSIDE PARK PL 4 AUTO CRASH
171021718988 10-21 19:49 W EDGEWOOD AVE AND BUNKER HILL BLVD 4 53 TRAFFIC CRASH PERSON INJURED
171021718989 10-21 19:49 RIVER SIDE/RIVERSIDE PARK 4 AUTO CRASH
171021718962 10-21 19:48 4500 SAN JUAN AVE 63 DISPUTE
171021718984 10-21 19:48 2100 MINDANAO DR 22 DOMESTIC
171021718974 10-21 19:47 1300 N DAVIS ST 2288 DOMESTIC DISPUTE WITH/ASSAULT
171021718983 10-21 19:46 200 W UNION 76 ASSIST OTHER AGENCY
171021718982 10-21 19:46 2600 PHILIPS HWY 1050 TRAFFIC STOP
171021718976 10-21 19:43 6400 TEMPLE RD 63 DISPUTE
171021718975 10-21 19:43 ATLANTIC BLVD AND MINDANAO DR 1050 TRAFFIC STOP
171021718972 10-21 19:42 7600 LAZEAU DR 22 DOMESTIC
171021718970 10-21 19:42 1500 HENDRICKS AVE 63 DISPUTE
171021718929 10-21 19:41 4300 CONFEDERATE POINT RD 64 NOISE COMPLAINT
171021718967 10-21 19:41 100 E U S 90 HWY 13 SUSPICIOUS PERSON
171021718935 10-21 19:40 7000 COLLINS RD 2 63 DISPUTE IMPAIRED/INTOXICATED
171021718963 10-21 19:36 9500 PHILIPS HWY 4 AUTO CRASH
171021718958 10-21 19:35 2300 E WINTERWOOD CIR 76 ASSIST OTHER AGENCY
171021718960 10-21 19:35 1600 W 32ND ST 9 THEFT
171021718838 10-21 19:34 7500 COVEWOOD DR 9 THEFT
171021718956 10-21 19:34 E UNION ST AND E STATE ST 26EB PERSON WITH EXTREME BEHAVIOR
171021718955 10-21 19:34 S MCDUFF AVE AND PLUM ST 64 NOISE COMPLAINT
171021718930 10-21 19:32 11200 OLD ST AUGUSTINE RD 4 AUTO CRASH
171021718953 10-21 19:32 MILLCREEK/LONES 13 SUSPICIOUS PERSON
171021718952 10-21 19:31 N I295 EXPWY AND MERRILL RD 96 ASSIST MOTORIST
171021718910 10-21 19:29 2800 SHANGRI LA DR 1066 CANCEL
171021718947 10-21 19:29 LENOX AVE AND NORMANDY BLVD 1050 TRAFFIC STOP
171021718942 10-21 19:28 7000 N MAIN ST 76 ASSIST OTHER AGENCY
171021718944 10-21 19:28 W BEAVER ST AND ST CLAIR ST 1050 TRAFFIC STOP
171021718943 10-21 19:28 RIVERSIDE AVE AND KING ST 1050 TRAFFIC STOP
171021718938 10-21 19:27 11000 E APPLE BLOSSOM TRL 1066 CANCEL
171021718940 10-21 19:26 SECONDINA RD AND N MAIN ST 33 DISCHARGING OF FIREARM
171021718939 10-21 19:26 4700 TOWN CROSSING DR 5582 HOLDING ONE FOR SHOPLIFTING
171021718927 10-21 19:24 9800 SAINT BRIDE LN 1066 CANCEL
171021718928 10-21 19:24 4600 RIVER CITY DR 4 AUTO CRASH
171021718886 10-21 19:23 1200 DENAUD ST 63 DISPUTE
171021718934 10-21 19:22 1700 S SAN PABLO RD 76 ASSIST OTHER AGENCY
171021718933 10-21 19:22 15700 PARETE RD 88P ASSAULT IN PROGRESS
171021718884 10-21 19:20 800 CALVERT ST 63 DISPUTE
171021718932 10-21 19:20 1500 WINDLE ST 54 ILLEGALLY PARKED CAR
171021718926 10-21 19:19 4700 LENOIR AVE 1066 CANCEL
171021718918 10-21 19:17 1500 S LANE AVE 73 DRUG INVESTIGATION
171021718853 10-21 19:17 4100 CONNIE ST 63 DISPUTE
171021718833 10-21 19:17 6700 WATOMA ST 56 JUVENILE COMPLAINT
171021718925 10-21 19:17 BEAVERBROOK PL AND N MCDUFF AVE 1050 TRAFFIC STOP
171021718898 10-21 19:16 8000 SHADWELL CT 63 DISPUTE
171021718907 10-21 19:16 2500 SPRING POND LN 64 NOISE COMPLAINT
171021718920 10-21 19:16 MONUMENT RD AND COBBLESTONE PKWY 9 THEFT
171021718899 10-21 19:16 CASSAT AVE AND LENOX AVE 16 ROAD OBSTRUCTION
171021718922 10-21 19:16 1500 WALKER LN 13 SUSPICIOUS PERSON
171021718849 10-21 19:15 5000 MAGNOLIA VALLEY DR 1066 CANCEL
171021718924 10-21 19:15 EDGEWOOD DR AND INA ST 1050 TRAFFIC STOP
171021718698 10-21 19:14 8400 COLLINS RD 22 DOMESTIC
171021718905 10-21 19:14 10900 BAYMEADOWS RD 63 DISPUTE
171021718916 10-21 19:13 N MAIN ST AND E 27TH ST 16 ROAD OBSTRUCTION
171021718903 10-21 19:13 6600 WILEY RD 63 DISPUTE
171021718909 10-21 19:12 9500 ARLINGTON EXPWY 56 JUVENILE COMPLAINT
171021718913 10-21 19:12 N MARKET ST AND E UNION ST 0 60 SUICIDE THREAT W/WEAPON
171021718892 10-21 19:12 4100 STILLWOOD DR 54 ILLEGALLY PARKED CAR
171021718904 10-21 19:11 10900 BAYMEADOWS RD 4 63 CRASH INVOLVING DISPUTE
171021718912 10-21 19:11 4100 BULLS BAY HWY 1050 TRAFFIC STOP
171021718893 10-21 19:11 4100 PHILIPS HWY 63 DISPUTE
171021718906 10-21 19:10 COLE RD/MAIN ST 1050 TRAFFIC STOP
171021718888 10-21 19:09 10500 S CASTLEBAR GLEN DR 33 DISCHARGING OF FIREARM
171021718901 10-21 19:09 1500 W UNION ST 54 ILLEGALLY PARKED CAR
171021718896 10-21 19:06 2100 PARK ST 1066 CANCEL
171021718887 10-21 19:06 100 N JULIA ST 0 63 ARMED DISPUTE
171021718895 10-21 19:05 S ST JOHNS BLUFF RD AND BEACH BLVD 4 AUTO CRASH
171021718890 10-21 19:04 8700 S OLD KINGS RD 13 SUSPICIOUS PERSON
171021718831 10-21 19:03 4700 PLAYSCHOOL DR 63 DISPUTE
171021718843 10-21 19:03 6000 LAKE GRAY BLVD 96 ASSIST MOTORIST
171021718827 10-21 19:02 1600 SADDLEBROOK LN 64 NOISE COMPLAINT
171021718881 10-21 19:02 3200 S UNIVERSITY BLVD 76 ASSIST OTHER AGENCY
171021718883 10-21 19:02 BUSCH/MAIN ST 1050 TRAFFIC STOP
171021718814 10-21 19:01 6800 NORMANDY BLVD 9J THEFT JUST OCCURRED
171021718874 10-21 19:01 J TURNER BUTLER BLVD AND S KERNAN BLVD 16 ROAD OBSTRUCTION
171021718769 10-21 19:00 7000 MACBETH RD 64 NOISE COMPLAINT
171021718862 10-21 19:00 4000 WALNUT ST 73 DRUG INVESTIGATION